www.pogodaiklimat.ru

АРХИВ ПОГОДЫ в Ростове-на-Дону

Время (UTC), дата Ветер
(напр.,м/с)
 
Видим.   Явления Облачность Т
(С)
Тd
(С)
f
(%)
Тe
(С)
Тes
(С)
Комфортность P
(гПа)
Po
(гПа)
Тmin
(С)
Tmax
(С)
R
(мм)
S
(см)
15 20.11 В 9-13
{15}
10 км 1/0
[Ac trans]
+1.5 -4.7 63 -5 -5 прохладно 1028.1 1018.6 +4.8
18 20.11 В 10-15
{15}
10 км 1/0
[Ac trans]
-0.9 -4.7 75 -9 -9 холодно 1028.8 1019.2
21 20.11 В 9-13
{15}
8000 м ясно -3.2 -7.6 72 -12 -12 очень
холодно
1028.6 1019.0
00 21.11 В 9-13
{15}
8000 м ясно -4.4 -8.7 72 -13 -13 очень
холодно
1028.4 1018.7
03 21.11 В 9-13
{13}
8000 м ясно -5.7 -9.2 76 -15 -15 очень
холодно
1027.5 1017.8 -5.7
06 21.11 В 10-13
{15}
10 км 3/0
[Ac trans]
-5.3 -9.9 70 -15 -15 очень
холодно
1028.1 1018.4 -6.5
09 21.11 В 12-16
{16}
10 км 3/0
[Ac trans]
+0.6 -13.5 34 -7 -7 холодно 1026.9 1017.4
12 21.11 В 11-15
{16}
10 км 1/0
[Ac trans]
+2.4 -14.0 29 -4 -4 прохладно 1025.6 1016.2
15 21.11 В 10-14
{15}
10 км 1/0
[Ac trans]
-1.1 -10.5 49 -9 -9 очень
холодно
1026.3 1016.8 +3.1
18 21.11 В 11-14
{15}
8000 м ясно -3.8 -7.5 75 -13 -13 очень
холодно
1026.5 1016.9
21 21.11 В 11-14
{15}
8000 м ясно -3.8 -7.5 75 -13 -13 очень
холодно
1026.5 1016.9
00 22.11 В 7-10
{14}
8000 м ясно -6.1 -8.0 86 -15 -15 очень
холодно
1026.3 1016.6
03 22.11 СВ 7-10
{12}
8000 м ясно -6.6 -8.6 86 -15 -15 очень
холодно
1026.2 1016.5 -6.7
06 22.11 СВ 7-10
{12}
10 км ясно -6.0 -9.1 79 -14 -14 очень
холодно
1026.3 1016.6 -7.5
09 22.11 В 7-11
{11}
10 км ясно -0.6 -11.3 44 -7 -6 холодно 1025.4 1015.9
12 22.11 СВ 7-10
{12}
10 км ясно +1.3 -13.4 32 -4 -4 прохладно 1024.7 1015.3
15 22.11 СВ 7-10
{10}
8000 м 10/10 700 м
[Sc]
-0.1 -12.6 38 -6 -6 прохладно 1025.7 1016.2 +1.4
18 22.11 СВ 6
{11}
8000 м 3/0
[Ac trans]
-3.9 -11.7 55 -11 -11 очень
холодно
1026.1 1016.5
21 22.11 СВ 5 8000 м 3/0
[Ac trans]
-5.0 -11.6 60 -12 -12 очень
холодно
1026.5 1016.8
00 23.11 СВ 5 8000 м 3/0
[Ac trans]
-5.9 -11.4 65 -13 -13 очень
холодно
1026.4 1016.7
03 23.11 СВ 2 8000 м 3/0
[Ac trans]
-7.1 -11.4 71 -11 -11 очень
холодно
1026.6 1016.8 -7.1
06 23.11 СВ 4 10 км 4/0
[Ac trans Ci fib]
-6.3 -9.9 76 -13 -13 очень
холодно
1028.0 1018.3 -8.0
09 23.11 СВ 5 10 км 3/0
[Ci fib]
-1.5 -8.0 61 -7 -6 холодно 1028.3 1018.7
12 23.11 С 3 10 км 1/0
[Ac trans]
+1.4 -6.1 57 -2 -2 по сезону 1028.1 1018.6
15 23.11 С 4 8000 м 3/0
[Ac trans]
-1.8 -9.0 58 -7 -7 холодно 1028.6 1019.0 +1.5
18 23.11 В 2 8000 м ясно -4.9 -8.0 79 -9 -9 холодно 1029.0 1019.3
21 23.11 С 2 8000 м ясно -3.9 -6.7 81 -8 -8 холодно 1029.8 1020.1
00 24.11 СВ 4 8000 м ясно -3.5 -6.4 80 -10 -10 холодно 1030.0 1020.3
03 24.11 СВ 6 8000 м ясно -3.8 -5.6 87 -11 -11 очень
холодно
1031.1 1021.4 -5.6
06 24.11 В 7-13
{13}
6000 м дымка 9/5 450 м
[Sc Ac trans]
-2.7 -4.1 90 -11 -11 очень
холодно
1033.3 1023.6
09 24.11 В 9-13
{13}
8000 м слабый снег 10/8 360 м
[Sc Ac und]
-3.2 -5.1 87 -12 -12 очень
холодно
1035.0 1025.3
12 24.11 В 9-13
{14}
10 км {снег} 10/10 450 м
[Sc]
-2.9 -5.5 82 -12 -12 очень
холодно
1034.9 1025.2
15 24.11 В 10-14
{14}
8000 м 10/10 500 м
[Sc]
-3.4 -6.4 80 -13 -13 очень
холодно
1035.4 1025.7 -2.5 0.0
18 24.11 В 8-12
{14}
8000 м 10/10 540 м
[Sc]
-3.6 -6.5 80 -12 -12 очень
холодно
1035.7 1026.0
21 24.11 В 10-15
{16}
8000 м 10/10 480 м
[Sc]
-3.4 -6.3 80 -13 -13 очень
холодно
1035.5 1025.8
00 25.11 В 11-15
{16}
8000 м 10/10 450 м
[Sc]
-4.5 -6.6 85 -14 -14 очень
холодно
1034.9 1025.2
03 25.11 В 7
{15}
8000 м 10/10 420 м
[Sc]
-3.1 -5.5 83 -11 -11 очень
холодно
1034.6 1024.9 -4.5
06 25.11 В 9-13
{15}
10 км 10/10 420 м
[Sc]
-4.0 -6.1 85 -13 -13 очень
холодно
1034.3 1024.6
09 25.11 В 10-13
{14}
10 км 10/8 420 м
[Sc Ac und]
-3.8 -6.1 84 -13 -13 очень
холодно
1033.8 1024.1
12 25.11 В 9-13
{14}
10 км 10/8 570 м
[Sc Ac und]
-3.8 -7.1 78 -13 -13 очень
холодно
1033.0 1023.3
15 25.11 В 10
{14}
8000 м в посл. час снег 10/10 540 м
[Sc]
-4.1 -7.3 78 -13 -13 очень
холодно
1032.5 1022.8 -3.0 0.0
18 25.11 В 10-13
{14}
4000 м слабый снег 10/10 480 м
[Sc]
-4.4 -6.9 83 -14 -14 очень
холодно
1031.6 1021.9
21 25.11 В 9-11
{14}
4000 м слабый снег 10/10 480 м
[Sc]
-5.2 -7.7 83 -14 -14 очень
холодно
1030.4 1020.7
00 26.11 В 9-11
{14}
10 км слабый снег 10/10 480 м
[Sc]
-5.4 -8.5 79 -15 -15 очень
холодно
1028.8 1019.1
03 26.11 В 8-11
{11}
2100 м слабый снег 10/10 120 м
[Sc]
-6.4 -7.7 90 -16 -16 очень
холодно
1028.1 1018.4 -6.4 0.0
06 26.11 СВ 7-10
{11}
2200 м слабый снег 10/10 240 м
[Sc]
-7.1 -8.2 92 -16 -16 очень
холодно
1027.9 1018.1 -7.1
09 26.11 В 7-10
{12}
7000 м слабый снег {ливн. осадки} 10/6 300 м
[Sc As op]
-5.8 -7.5 88 -14 -14 очень
холодно
1026.9 1017.2
12 26.11 В 7-10
{12}
10 км {ливн. осадки, снег} 10/8 300 м
[Sc Ac und]
-4.8 -6.3 89 -13 -13 очень
холодно
1025.9 1016.2
15 26.11 В 8-11
{12}
8000 м 10/8 500 м
[Sc Ac und]
-4.6 -7.7 79 -13 -13 очень
холодно
1026.0 1016.3 -4.5 0.4
18 26.11 В 8-12
{12}
8000 м слабый снег 10/10 480 м
[Sc]
-4.4 -7.4 80 -13 -13 очень
холодно
1025.5 1015.8
21 26.11 В 8-11
{11}
8000 м слабый снег 10/8 400 м
[Frnb As op]
-5.1 -7.0 86 -14 -14 очень
холодно
1025.6 1015.9
00 27.11 В 7-10
{11}
8000 м слабый снег 10/8 400 м
[Frnb As op]
-4.1 -6.9 81 -12 -12 очень
холодно
1025.0 1015.4
03 27.11 В 7-11
{11}
8000 м в посл. час снег 10/10 450 м
[Sc]
-3.7 -6.4 82 -12 -12 очень
холодно
1024.8 1015.2 -5.3 0.0
06 27.11 В 8-11
{12}
10 км в посл. час снег 10/8 450 м
[Sc Ac und]
-3.6 -8.8 67 -12 -12 очень
холодно
1025.5 1015.9
09 27.11 В 8-10
{12}
2800 м слабый ливневой снег 10/8 450 м
[Cb calv Ac und]
-3.8 -5.5 88 -12 -12 очень
холодно
1025.5 1015.9
12 27.11 В 6-10
{12}
10 км {ливн. осадки, снег} 10/5 450 м
[Sc Ac und]
-2.5 -4.3 87 -10 -10 очень
холодно
1025.5 1015.9

 

Обсудить погоду в Ростове-на-Дону на МЕТЕОФОРУМЕ

 

Местоположение метеостанции Ростов-на-Дону (Ростовская область, Россия): широта 47.27 долгота 39.82 высота над уровнем моря 75 м.

В архиве по умолчанию представлена погода в Ростове-на-Дону за последнюю неделю. Архивные данные за месяц целиком и за предыдущие месяцы, начиная с января 2011 года, Вы можете получить, выбрав интересующий диапазон дат из раскрывающегося списка и нажав кнопку "Ввод!".

Внимание! Время в таблицах - всемирное. Для получения местного времени необходимо прибавить поправку, которая в Ростове-на-Дону равна 3 ч.

Ветер - указаны скорость ветра в м/с - средняя за 10 мин, порывы в срок и между сроками (в фигурных скобках) и направление, откуда дует ветер: С - северный, СВ - северо-восточный, В - восточный, ЮВ - юго-восточный, Ю - южный, ЮЗ - юго-западный, З - западный, СЗ - северо-западный.
Видимость - горизонтальная дальность видимости в метрах или километрах. При видимости от 1 до 10 км при отсутствии осадков обычно наблюдается дымка, при ухудшении видимости до 1 км и менее - туман. В сухую погоду видимость может ухудшаться дымом, пылью или мглою.
Явления - указаны атсосферные явления, наблюдавшиеся в срок или в последний час перед сроком; фигурными скобками обозначены явления, наблюдавшиеся между сроками (за 1-3 часа до срока); квадратными скобками обозначены град или гололедные отложения с указанием их диаметра в мм.
Облачность - указаны через наклонную черту общая и нижняя облачность в баллах и высота нижней границы облаков в метрах; квадратными скобками обозначены формы облаков: Ci - перистые, Cs - перисто-слоистые, Cc - перисто-кучевые, Ac - высококучевые, As - высокослоистые, Sc - слоисто-кучевые, Ns - слоисто-дождевые, Cu - кучевые, Cb - кучево-дождевые. Подробнее классификацию облаков см. в Атласе облаков (PDF).
T - Температура воздуха - температура, измеренная на высоте 2 м над землей.
Td - Температура точки росы - температура, при понижении до которой содержащийся в воздухе водяной пар достигнет насыщения.
f - Относительная влажность воздуха - влажноcть воздуха, измеренная на высоте 2 м над землей.
Te - Эффективная температура - температура, которую ощущает одетый по сезону человек в тени. Характеристика душности погоды. При расчете учитывается влияние влажности воздуха и скорости ветра на теплоощущения человека.
Tes - Эффективная температура на солнце - температура, которую ощущает человек, с поправкой на солнечный нагрев. Характеристика знойности погоды. Зависит от высоты солнца над горизонтом, облачности и скорости ветра. Ночью, в пасмурную погоду, а также при ветре 12 м/с и более поправка равна нулю.
P - Атмосферное давление - приведенное к уровню моря атмосферное давление.
Po - Атмосферное давление - измеренное на уровне метеостанции атмосферное давление.
Tmin - Минимальная температура - минимум температуры воздуха на высоте 2 м над землей.
Tmax - Максимальная температура - максимум температуры воздуха на высоте 2 м над землей.
R - Количество осадков - Количество выпавших осадков, мм.
S - Снежный покров - Высота снежного покрова, см.